This demonstration page uses our WeatherBlox Daily Observations layout. Learn more.

Left ArrowRight Arrow

Hourly Observations for January 7, 2016

Temp ( °F °C ) Dew Point ( °F °C ) Humidity (%) Winds ( mph kmh ) Pressure ( in mb ) Visibility ( mi km ) Precip ( " mm )
12:53 am 00:53 Clear 46 7.8 40 4.4 79 79 SW 13 20 29.85 1011 10 16 0.00 0.00
1:53 am 01:53 Clear 42 5.6 38 3.3 85 85 WSW 10 17 29.87 1011 10 16 0.00 0.00
2:53 am 02:53 Clear 44 6.7 37 2.8 76 76 WSW 13 20 29.85 1011 10 16 0.00 0.00
3:53 am 03:53 Clear 44 6.7 36 2.2 73 73 W 12 19 29.83 1010 10 16 0.00 0.00
4:53 am 04:53 Clear 40 4.4 35 1.7 83 83 WSW 8 13 29.83 1010 10 16 0.00 0.00
5:53 am 05:53 Clear 40 4.4 34 1.1 79 79 SW 10 17 29.83 1010 10 16 0.00 0.00
6:53 am 06:53 Clear 45 7.2 35 1.7 68 68 SW 15 24 29.84 1010 10 16 0.00 0.00
7:53 am 07:53 Clear 45 7.2 35 1.7 68 68 WSW 13 20 29.85 1011 10 16 0.00 0.00
8:53 am 08:53 Sunny 47 8.3 36 2.2 66 66 WSW 14 22 29.86 1011 10 16 0.00 0.00
9:53 am 09:53 Sunny 52 11.1 36 2.2 55 55 WSW 17 28 29.87 1011 10 16 0.00 0.00
10:53 am 10:53 Sunny 56 13.3 36 2.2 47 47 WSW 23 37 29.86 1011 10 16 0.00 0.00
11:53 am 11:53 Sunny 58 14.4 36 2.2 44 44 WSW 23 37 29.83 1010 10 16 0.00 0.00
12:53 pm 12:53 Sunny 60 15.6 35 1.7 39 39 W 25 41 29.80 1009 10 16 0.00 0.00
1:53 pm 13:53 Sunny 62 16.7 34 1.1 35 35 W 23 37 29.77 1008 10 16 0.00 0.00
2:53 pm 14:53 Mostly Sunny 62 16.7 34 1.1 35 35 WNW 18 30 29.74 1007 10 16 0.00 0.00
3:53 pm 15:53 Sunny 63 17.2 33 0.6 33 33 W 18 30 29.72 1007 10 16 0.00 0.00
4:53 pm 16:53 Sunny 62 16.7 28 -2.2 28 28 W 20 31 29.74 1007 10 16 0.00 0.00
5:53 pm 17:53 Sunny 59 15 29 -1.7 32 32 W 13 20 29.74 1007 10 16 0.00 0.00
6:53 pm 18:53 Clear 51 10.6 32 0 48 48 WNW 6 9 29.75 1008 10 16 0.00 0.00
7:53 pm 19:53 Clear 49 9.4 32 0 52 52 W 6 9 29.75 1008 10 16 0.00 0.00
8:53 pm 20:53 Clear 47 8.3 32 0 56 56 Calm 29.76 1008 10 16 0.00 0.00
9:53 pm 21:53 Clear 42 5.6 33 0.6 71 71 NNE 3 6 29.76 1008 10 16 0.00 0.00
10:53 pm 22:53 Clear 42 5.6 33 0.6 71 71 SE 3 6 29.74 1007 10 16 0.00 0.00
11:53 pm 23:53 Clear 41 5 34 1.1 76 76 SSW 7 11 29.76 1008 10 16 0.00 0.00

Powered by AerisWeather